TimeEST,TemperatureF,Dew PointF,Humidity,Sea Level PressureIn,VisibilityMPH,Wind Direction,Wind SpeedMPH,Gust SpeedMPH,PrecipitationIn,Events,Conditions,WindDirDegrees,DateUTC
12:15 AM,42.1,27.5,56,29.92,10.0,SSW,9.2,-,N/A,,Overcast,210,2013-11-15 05:15:00
12:35 AM,42.3,27.3,56,29.92,10.0,SSW,10.4,-,N/A,,Overcast,200,2013-11-15 05:35:00
12:55 AM,42.1,27.3,56,29.92,10.0,SSW,8.1,-,N/A,,Mostly Cloudy,210,2013-11-15 05:55:00
1:15 AM,41.9,27.1,56,29.92,10.0,SSW,8.1,-,N/A,,Overcast,200,2013-11-15 06:15:00
1:35 AM,41.9,27.3,56,29.92,10.0,SSW,9.2,-,N/A,,Mostly Cloudy,200,2013-11-15 06:35:00
1:55 AM,42.6,27.5,55,29.91,10.0,SSW,9.2,-,N/A,,Overcast,200,2013-11-15 06:55:00
2:15 AM,42.8,27.5,55,29.91,10.0,SSW,9.2,-,N/A,,Overcast,200,2013-11-15 07:15:00
2:35 AM,42.6,27.5,55,29.92,10.0,SSW,9.2,-,N/A,,Overcast,210,2013-11-15 07:35:00
2:55 AM,42.3,27.5,56,29.92,10.0,SSW,9.2,-,N/A,,Mostly Cloudy,210,2013-11-15 07:55:00
3:15 AM,42.4,27.7,56,29.92,10.0,SSW,9.2,-,N/A,,Overcast,210,2013-11-15 08:15:00
3:35 AM,42.8,28.0,56,29.92,10.0,SSW,6.9,-,N/A,,Overcast,200,2013-11-15 08:35:00
3:55 AM,42.8,28.2,56,29.91,10.0,SSW,8.1,-,N/A,,Overcast,200,2013-11-15 08:55:00
4:15 AM,42.8,28.4,57,29.91,10.0,SSW,8.1,-,N/A,,Overcast,200,2013-11-15 09:15:00
4:35 AM,42.8,28.4,57,29.91,10.0,SSW,9.2,-,N/A,,Overcast,210,2013-11-15 09:35:00
4:55 AM,42.8,28.4,57,29.91,10.0,SSW,8.1,-,N/A,,Overcast,200,2013-11-15 09:55:00
5:15 AM,42.4,28.4,58,29.92,10.0,SSW,9.2,-,N/A,,Overcast,200,2013-11-15 10:15:00
5:35 AM,42.4,28.4,58,29.92,10.0,SSW,8.1,-,N/A,,Overcast,200,2013-11-15 10:35:00
5:55 AM,40.8,30.9,68,29.92,7.0,SSW,8.1,-,N/A,Rain,Light Rain,200,2013-11-15 10:55:00
6:15 AM,41.0,30.0,65,29.92,10.0,SSW,8.1,-,N/A,,Overcast,200,2013-11-15 11:15:00
6:35 AM,41.0,30.0,65,29.91,10.0,South,6.9,-,N/A,,Overcast,190,2013-11-15 11:35:00
6:55 AM,41.2,29.7,64,29.92,10.0,SSW,8.1,-,N/A,,Overcast,200,2013-11-15 11:55:00
7:15 AM,41.0,29.8,64,29.93,10.0,SSW,9.2,-,N/A,,Overcast,200,2013-11-15 12:15:00
7:35 AM,41.2,30.0,65,29.93,10.0,South,9.2,-,N/A,,Overcast,190,2013-11-15 12:35:00
7:55 AM,41.4,30.2,65,29.94,10.0,SSW,10.4,-,N/A,,Overcast,210,2013-11-15 12:55:00
8:15 AM,41.5,30.4,65,29.94,10.0,South,6.9,-,N/A,,Overcast,190,2013-11-15 13:15:00
8:34 AM,41.7,30.6,65,29.95,10.0,South,5.8,-,N/A,,Overcast,190,2013-11-15 13:34:00
8:55 AM,41.4,30.2,65,29.95,10.0,South,6.9,-,N/A,,Overcast,170,2013-11-15 13:55:00
9:15 AM,41.0,30.6,66,29.95,10.0,South,5.8,-,N/A,,Overcast,170,2013-11-15 14:15:00
9:34 AM,41.0,30.6,66,29.96,10.0,South,5.8,-,N/A,Rain,Light Rain,190,2013-11-15 14:34:00
9:55 AM,41.0,30.9,67,29.96,10.0,South,5.8,-,N/A,Rain,Rain,170,2013-11-15 14:55:00
10:15 AM,41.4,30.9,66,29.96,10.0,South,6.9,-,N/A,,Overcast,190,2013-11-15 15:15:00
10:34 AM,41.2,31.8,69,29.96,10.0,SSW,6.9,-,N/A,Rain,Light Rain,210,2013-11-15 15:34:00
10:55 AM,41.9,31.3,66,29.96,10.0,SSW,6.9,-,N/A,,Overcast,210,2013-11-15 15:55:00
11:15 AM,42.4,31.3,65,29.96,10.0,SSW,6.9,-,N/A,,Overcast,210,2013-11-15 16:15:00
11:34 AM,43.2,31.5,63,29.96,10.0,SSW,6.9,-,N/A,,Mostly Cloudy,210,2013-11-15 16:34:00
11:55 AM,44.1,31.6,62,29.96,10.0,SSW,9.2,-,N/A,,Overcast,200,2013-11-15 16:55:00
12:15 PM,44.6,32.0,61,29.95,10.0,SSW,11.5,-,N/A,,Overcast,200,2013-11-15 17:15:00
12:34 PM,45.5,32.0,59,29.95,10.0,SSW,9.2,-,N/A,,Overcast,210,2013-11-15 17:34:00
12:55 PM,46.0,32.0,58,29.95,10.0,SSW,11.5,16.1,N/A,,Mostly Cloudy,210,2013-11-15 17:55:00
1:15 PM,46.0,32.0,58,29.94,10.0,SSW,5.8,-,N/A,,Mostly Cloudy,210,2013-11-15 18:15:00
1:34 PM,46.6,32.0,57,29.94,10.0,SW,8.1,16.1,N/A,,Scattered Clouds,220,2013-11-15 18:34:00
1:55 PM,47.5,32.2,55,29.94,10.0,SSW,9.2,-,N/A,,Clear,210,2013-11-15 18:55:00
2:15 PM,47.8,32.0,54,29.94,10.0,SSW,8.1,-,N/A,,Scattered Clouds,200,2013-11-15 19:15:00
2:34 PM,48.7,32.0,52,29.93,10.0,South,10.4,-,N/A,,Mostly Cloudy,190,2013-11-15 19:34:00
2:55 PM,47.7,32.0,55,29.93,10.0,SSW,9.2,-,N/A,,Mostly Cloudy,200,2013-11-15 19:55:00
3:15 PM,47.7,32.0,55,29.93,10.0,SSW,9.2,-,N/A,,Overcast,200,2013-11-15 20:15:00
3:34 PM,48.2,32.0,54,29.93,10.0,SSW,10.4,-,N/A,,Overcast,210,2013-11-15 20:34:00
3:55 PM,48.4,32.0,53,29.94,10.0,SW,10.4,-,N/A,,Overcast,220,2013-11-15 20:55:00
4:15 PM,48.2,32.0,54,29.93,10.0,South,9.2,-,N/A,,Overcast,190,2013-11-15 21:15:00
4:35 PM,47.7,31.8,54,29.93,10.0,South,6.9,-,N/A,,Overcast,190,2013-11-15 21:35:00
4:55 PM,47.5,31.3,53,29.94,10.0,South,4.6,-,N/A,,Mostly Cloudy,180,2013-11-15 21:55:00
5:15 PM,46.9,30.7,53,29.95,10.0,SSW,5.8,-,N/A,,Overcast,200,2013-11-15 22:15:00
5:35 PM,46.4,30.0,53,29.95,10.0,South,5.8,-,N/A,,Mostly Cloudy,170,2013-11-15 22:35:00
5:55 PM,44.8,29.8,56,29.96,10.0,South,4.6,-,N/A,,Scattered Clouds,190,2013-11-15 22:55:00
6:15 PM,44.1,29.5,57,29.96,10.0,Calm,Calm,-,N/A,,Clear,0,2013-11-15 23:15:00
6:35 PM,43.7,29.8,58,29.96,10.0,Calm,Calm,-,N/A,,Clear,0,2013-11-15 23:35:00
6:55 PM,37.9,28.9,70,29.96,10.0,Calm,Calm,-,N/A,,Clear,0,2013-11-15 23:55:00
7:15 PM,37.2,28.9,72,29.97,10.0,Calm,Calm,-,N/A,,Clear,0,2013-11-16 00:15:00
7:35 PM,37.2,29.8,75,29.97,7.0,Calm,Calm,-,N/A,,Clear,0,2013-11-16 00:35:00
7:55 PM,36.5,29.8,77,29.98,7.0,Calm,Calm,-,N/A,,Clear,0,2013-11-16 00:55:00
8:15 PM,35.2,29.7,80,29.97,7.0,Calm,Calm,-,N/A,,Clear,0,2013-11-16 01:15:00
8:35 PM,33.3,29.1,85,29.98,7.0,Calm,Calm,-,N/A,,Clear,0,2013-11-16 01:35:00
8:55 PM,34.9,29.3,80,29.98,7.0,South,3.5,-,N/A,,Clear,170,2013-11-16 01:55:00
9:15 PM,37.0,28.9,73,29.98,10.0,Calm,Calm,-,N/A,,Clear,0,2013-11-16 02:15:00
9:35 PM,36.0,28.0,73,29.98,10.0,Calm,Calm,-,N/A,,Clear,0,2013-11-16 02:35:00
9:55 PM,37.6,28.6,70,29.98,10.0,SSE,4.6,-,N/A,,Clear,150,2013-11-16 02:55:00
10:15 PM,37.4,28.0,69,29.98,10.0,Calm,Calm,-,N/A,,Clear,0,2013-11-16 03:15:00
10:35 PM,36.5,28.0,71,29.98,10.0,Calm,Calm,-,N/A,,Clear,0,2013-11-16 03:35:00
10:55 PM,36.5,27.5,70,29.98,10.0,Calm,Calm,-,N/A,,Clear,0,2013-11-16 03:55:00
11:15 PM,37.0,27.5,68,29.98,10.0,Calm,Calm,-,N/A,,Clear,0,2013-11-16 04:15:00
11:35 PM,36.1,27.3,70,29.99,10.0,SSE,3.5,-,N/A,,Clear,150,2013-11-16 04:35:00
11:55 PM,36.5,27.5,70,30.00,10.0,SSE,3.5,-,N/A,,Clear,160,2013-11-16 04:55:00